Weather in Pantaivka

Ukraine / Kirovohrad Region     48°40′33″N   32°53′41″E
temp.,
°C
wind,
m/s
gust,
m/s
humid.,
%
clouds,
%
prec.,
mm/h
press.,
hPa
HPBL,
m
22 january, fri
fri2223:00−1ssw5129593 0.0 1021283
02:000ssw5109874 0.0 1021319
05:00−1ssw5129568 0.0 1020228
08:000ssw6139654 0.0 1019293
11:00+3ssw71210096 0.0 1019448
14:00+4ssw6119698 0.0 1018417
17:00+2s5129696 0.0 1017334
20:00+2s5139798 0.0 1017294
23 january, sat
sat2323:00+4s71398100 0.0 1016413
02:00+4s61496100 0.0 1015465
05:00+4s71496100 0.0 1014476
08:00+5s71397100 0.0 1014434
11:00+5s71396100 0.0 1014468
14:00+7s7139395 0.0 1013563
17:00+5sse6139696 0.0 1012381
20:00+5s6139698 0.0 1013383
24 january, sun
sun2423:00+5s71496100 0.0 1012436
02:00+5s71594100 0.0 1012483
05:00+4s71691100 0.0 1011462
08:00+5sse81787100 0.0 1011479
11:00+7sse91774100 0.0 1010825
14:00+8sse91669100 0.0 10071187
17:00+7sse9178797 1.9 1008722
20:00+7s7149399 2.0 1008641
25 january, mon
mon2523:00+7s61293100 0.0 1007544
02:00+7sse71392100 0.1 1007548
05:00+7s61294100 0.0 1007517
08:00+7s61292100 0.0 1008550
11:00+8sse61289100 0.0 1007673
14:00+8sse81491100 0.7 1005672
17:00+8sse91889100 1.0 10031040
20:00+7se111882100 1.3 1001769
26 january, tue
tue2623:00+7sse101989100 2.3 9981104
02:00+7sse9168399 3.8 9971141
05:00+3s10167465 0.0 9971179
08:00+2s10187569 0.0 9981179
11:00+3ssw11175932 0.0 9981754
14:00+2sw13196666 0.1 10001581
17:00+1sw121968100 0.0 10031302
20:000wsw10187098 0.0 10061063